Location: Lecco
(45.8566°N, 9.3977°E)
Time: 03:33:19
(UTC+02:00)

Transit 4A - Pass Details

Date: 17 August 2020
Orbit: 863 x 982 km, 66.8° (Epoch: 23 September)

Event Time Altitude Azimuth Distance (km) Brightness Sun altitude
Rises 13:56:04 0° 318° (NW) 3,613 10.8 56.7°
Reaches altitude 10° 14:01:16 10° 355° (N) 2,699 10.1 56.5°
Maximum altitude 14:02:44 11° 8° (N) 2,650 10.1 56.4°
Drops below altitude 10° 14:04:12 10° 22° (NNE) 2,714 10.1 56.4°
Sets 14:09:30 0° 58° (ENE) 3,680 10.8 56.1°
